[[{"header":{"parameterUnit":"m.s-1","parameterCategory":1,"la1":30.2991,"la2":30.254,"lo1":-89.0895,"lo2":-89.0444,"dy":0.0017,"dx":0.0017,"nx":28,"ny":28,"refTime":"2024-05-10T21:00:00:Z","depth":0,"parameterNumber":2,"parameterNumberName":"U-component_of_WINDS"},"data":[0,0,0,0,0,0,0,0,0,0,0,0,0,0,0,0,0,0,0,0,0,0,0,0,0,0,0,0,0,0,0,0,0,0,0,0,0,0,0,0,0,0,0,0,0,0,0,0,0,0,0,0,0,0,0,0,0,0,-5.4868,-5.4868,0,-5.4885,-5.4885,-5.4885,-5.478,-5.4777,-5.4774,-5.4771,-5.4787,-5.479,-5.4793,0,0,0,0,0,0,0,0,0,0,0,0,0,-5.4745,-5.4748,-5.4868,-5.4868,-5.4868,-5.4885,-5.4885,-5.4885,-5.478,-5.4777,-5.4773,-5.477,-5.4786,-5.4789,-5.4793,0,0,0,0,0,0,0,0,0,0,0,0,0,-5.4784,-5.4749,-5.4868,-5.4818,-5.4814,-5.4885,-5.4885,-5.4885,-5.4781,-5.4776,-5.4772,-5.4768,-5.4784,-5.4789,-5.4794,-5.4913,0,0,-5.4808,-5.481,0,0,0,0,0,0,0,0,-5.4782,-5.4788,-5.4825,-5.4822,-5.4817,-5.4826,-5.4847,-5.4894,-5.4782,-5.4793,-5.4771,-5.4766,-5.4803,-5.4806,-5.4819,-5.4913,-5.4914,-5.4809,-5.4812,-5.4814,-5.4815,0,0,0,0,0,0,0,-5.4779,-5.4787,-5.4874,-5.4826,-5.4821,-5.4795,-5.4795,-5.4856,-5.4823,-5.4792,-5.4784,-5.4788,-5.48,-5.4815,-5.4818,-5.4914,-5.4809,-5.4813,-5.4816,-5.4818,-5.5108,-5.5113,0,0,0,0,0,0,-5.4783,-5.4786,-5.4874,-5.4875,-5.4788,-5.4801,-5.4801,-5.4827,-5.4822,-5.4817,-5.4792,-5.4783,-5.4809,-5.4813,-5.4819,-5.4957,-5.4814,-5.4818,-5.4821,-5.5103,-5.5109,-5.5114,0,0,0,0,0,0,-5.4781,-5.4792,-5.4873,-5.4828,-5.4837,-5.4807,-5.4838,-5.483,-5.4844,-5.4822,-5.4815,-5.4813,-5.4805,-5.4812,-5.489,-5.4957,-5.482,-5.4825,-5.5098,-5.5105,-5.5112,-5.5237,0,0,0,0,0,0,-5.4778,-5.4792,-5.4837,-5.483,-5.4839,-5.4945,-5.4842,-5.4834,-5.4853,-5.4842,-5.484,-5.4835,-5.4802,-5.4884,-5.4895,-5.4961,-5.4828,-5.5091,-5.5101,-5.511,-5.5226,-5.5247,-5.5265,0,0,0,0,0,-5.4774,-5.4871,-5.4839,-5.4851,-5.4895,-5.4949,-5.4954,-5.4915,-5.4859,-5.4904,-5.489,-5.4835,-5.4948,-5.4893,-5.4905,-5.4973,-5.5087,-5.5098,-5.5109,-5.5218,-5.5243,-5.5265,0,0,0,0,0,0,-5.4884,-5.4869,-5.4834,-5.4931,-5.4943,-5.4931,-5.4986,-5.4943,-5.4969,-5.4958,-5.4907,-5.4908,-5.4995,-5.4992,-5.493,-5.5088,-5.5008,-5.5022,-5.5087,-5.5111,-5.513,-5.5128,-5.4832,0,0,0,0,0,-5.4921,-5.4966,-5.495,-5.5037,-5.5045,-5.5015,-5.5037,-5.5006,-5.5015,-5.5019,-5.501,-5.5021,-5.5059,-5.5085,-5.5118,-5.5226,-5.5224,-5.5279,-5.5299,-5.5315,-5.5327,-5.5384,-5.5408,-5.515,-5.515,-5.515,0,0,-5.4994,-5.4992,-5.5023,-5.506,-5.5064,-5.5113,-5.5019,-5.5074,-5.5109,-5.5027,-5.51,-5.5096,-5.5104,-5.5198,-5.5239,-5.5198,-5.5398,-5.5329,-5.5342,-5.5345,-5.5398,-5.5422,-5.5444,-5.5158,-5.5156,-5.5155,0,0,-5.5154,-5.5157,-5.523,-5.5238,-5.5247,-5.5227,-5.5245,-5.5241,-5.5234,-5.5308,-5.5247,-5.5289,-5.5355,-5.5364,-5.5377,-5.5544,-5.5495,-5.5556,-5.5657,-5.5713,-5.5734,-5.5751,-5.581,-5.5832,-5.5569,-5.5569,-5.5569,0,-5.5244,-5.5315,-5.5273,-5.5333,-5.5351,-5.528,-5.5354,-5.5364,-5.5383,-5.5397,-5.5352,-5.5434,-5.5435,-5.553,-5.5572,-5.5585,-5.5604,-5.5555,-5.5734,-5.5752,-5.5767,-5.5823,-5.5846,-5.5576,-5.5576,-5.5575,-5.5574,0,-5.5426,-5.5476,-5.5535,-5.5557,-5.5581,-5.5648,-5.5616,-5.5647,-5.5615,-5.56,-5.5676,-5.5675,-5.5708,-5.5728,-5.5697,-5.582,-5.5794,-5.5743,-5.5661,-5.58,-5.5851,-5.5873,-5.5587,-5.5584,-5.5582,-5.558,0,0,-5.5652,-5.5653,-5.5675,-5.5684,-5.5691,-5.5729,-5.5793,-5.5826,-5.5852,-5.5869,-5.5921,-5.5981,-5.5933,-5.5949,-5.5918,-5.5968,-5.61,-5.591,-5.5909,-5.5945,-5.6236,-5.6274,-5.6299,-5.6069,-5.6073,-5.6076,-5.6235,0,-5.5808,-5.5917,-5.5883,-5.5993,-5.6039,-5.5974,-5.603,-5.6041,-5.6029,-5.6067,-5.6054,-5.6096,-5.6031,-5.604,-5.6087,-5.6074,-5.6158,-5.6063,-5.6116,-5.6119,-5.6115,-5.6326,-5.6366,-5.6515,-5.6255,-5.6258,-5.626,0,-5.6002,-5.6029,-5.6144,-5.6144,-5.6162,-5.6213,-5.6241,-5.6278,-5.6289,-5.6277,-5.6296,-5.6256,-5.6319,-5.6239,-5.6325,-5.6261,-5.6282,-5.628,-5.6284,-5.6286,-5.6197,-5.6332,-5.6562,-5.6584,-5.6292,-5.6289,-5.6287,0,-5.6155,-5.6219,-5.6297,-5.6307,-5.6309,-5.6347,-5.635,-5.6356,-5.6379,-5.6404,-5.6418,-5.645,-5.6467,-5.6493,-5.6463,-5.6407,-5.6554,-5.6471,-5.6545,-5.6546,-5.6577,-5.6575,-5.6812,-5.6594,-5.6593,-5.6593,-5.6592,0,-5.6331,-5.6404,-5.6366,-5.6413,-5.6493,-5.6454,-5.6534,-5.653,-5.6537,-5.6582,-5.6529,-5.6573,-5.6531,-5.6571,-5.6548,-5.6623,-5.6632,-5.6624,-5.6616,-5.6628,-5.6629,-5.6639,-5.6627,-5.6599,-5.6597,-5.6596,-5.6595,0,-5.6514,-5.6491,-5.6571,-5.6568,-5.6569,-5.6629,-5.6625,-5.6669,-5.6655,-5.6714,-5.6725,-5.6703,-5.6748,-5.6721,-5.6767,-5.6752,-5.6849,-5.6828,-5.6846,-5.6839,-5.6915,-5.6908,-5.7165,-5.7197,-5.696,-5.6962,-5.6964,0,-5.6627,-5.6682,-5.6685,-5.6712,-5.6719,-5.6763,-5.6787,-5.6751,-5.6777,-5.6795,-5.6837,-5.6878,-5.6908,-5.6983,-5.6971,-5.7006,-5.6985,-5.7073,-5.6989,-5.6999,-5.6985,-5.6981,-5.6987,-5.7089,-5.7092,-5.7094,-5.7096,0,-5.6829,-5.6816,-5.6852,-5.6885,-5.6915,-5.6939,-5.6958,-5.6983,-5.6948,-5.6981,-5.7026,-5.705,-5.7098,-5.7139,-5.7169,-5.7171,-5.7128,-5.7123,-5.7141,-5.7152,-5.716,-5.7156,-5.689,-5.7116,-5.7114,-5.7113,-5.7111,-5.7111,-5.6979,-5.7026,-5.7036,-5.7078,-5.709,-5.711,-5.7151,-5.7143,-5.7181,-5.7217,-5.7194,-5.7249,-5.726,-5.7296,-5.7305,-5.7346,-5.7311,-5.7338,-5.7345,-5.7352,-5.7362,-5.7155,-5.7352,-5.7351,-5.7351,-5.735,-5.735,0,-5.7178,-5.7182,-5.7222,-5.7252,-5.7285,-5.7244,-5.7264,-5.7294,-5.7343,-5.7357,-5.7389,-5.7443,-5.7483,-5.7475,-5.7512,-5.7547,-5.7528,-5.7558,-5.7554,-5.7555,-5.7392,-5.7372,-5.7572,-5.7572,-5.7572,-5.7572,-5.7572,-5.7572,-5.7285,-5.7361,-5.735,-5.7431,-5.7435,-5.7488,-5.7503,-5.7522,-5.7533,-5.7595,-5.7629,-5.7624,-5.763,-5.7667,-5.7703,-5.7699,-5.7715,-5.7752,-5.7741,-5.7589,-5.7566,-5.7545,-5.7526,-5.7756,-5.7756,-5.79,-5.7902,-5.7903]},{"header":{"parameterUnit":"m.s-1","parameterCategory":1,"la1":30.2991,"la2":30.254,"lo1":-89.0895,"lo2":-89.0444,"dy":0.0017,"dx":0.0017,"nx":28,"ny":28,"refTime":"2024-05-10T21:00:00:Z","depth":0,"parameterNumber":3,"parameterNumberName":"V-component_of_WINDS"},"data":[0,0,0,0,0,0,0,0,0,0,0,0,0,0,0,0,0,0,0,0,0,0,0,0,0,0,0,0,0,0,0,0,0,0,0,0,0,0,0,0,0,0,0,0,0,0,0,0,0,0,0,0,0,0,0,0,0,0,0.2868,0.2868,0,0.2852,0.2851,0.2851,0.2831,0.2831,0.283,0.283,0.2813,0.2813,0.2812,0,0,0,0,0,0,0,0,0,0,0,0,0,0.2883,0.2883,0.2868,0.2868,0.2868,0.2852,0.2851,0.2851,0.2831,0.2831,0.283,0.283,0.2813,0.2813,0.2812,0,0,0,0,0,0,0,0,0,0,0,0,0,0.2873,0.2883,0.2868,0.2856,0.2854,0.2852,0.2851,0.2851,0.2831,0.283,0.283,0.283,0.2813,0.2813,0.2812,0.282,0,0,0.2812,0.2812,0,0,0,0,0,0,0,0,0.2873,0.2872,0.2858,0.2857,0.2855,0.2843,0.285,0.2841,0.2831,0.284,0.283,0.2829,0.2823,0.2822,0.282,0.282,0.2819,0.2812,0.2811,0.2811,0.2811,0,0,0,0,0,0,0,0.2874,0.2873,0.2862,0.2858,0.2856,0.2851,0.2849,0.2848,0.2834,0.2839,0.2838,0.2836,0.2822,0.282,0.2819,0.2819,0.2812,0.2811,0.2811,0.2811,0.2826,0.2827,0,0,0,0,0,0,0.2877,0.2874,0.2862,0.2861,0.2863,0.2851,0.2849,0.2847,0.2834,0.2832,0.2836,0.2835,0.2821,0.282,0.2819,0.2828,0.2811,0.2811,0.2811,0.2826,0.2826,0.2827,0,0,0,0,0,0,0.2877,0.2876,0.2863,0.2867,0.2865,0.2852,0.285,0.2847,0.2845,0.2832,0.283,0.2837,0.282,0.2819,0.2821,0.2828,0.2811,0.2811,0.2825,0.2826,0.2826,0.2847,0,0,0,0,0,0,0.2878,0.2876,0.2879,0.2867,0.2865,0.2865,0.285,0.2847,0.2845,0.2843,0.2832,0.283,0.282,0.2821,0.282,0.2827,0.2811,0.2824,0.2825,0.2826,0.2846,0.2849,0.2851,0,0,0,0,0,0.2878,0.2885,0.2879,0.2878,0.2868,0.2865,0.2864,0.2852,0.2845,0.2848,0.284,0.283,0.2827,0.2821,0.282,0.2827,0.2824,0.2825,0.2826,0.2845,0.2848,0.2851,0,0,0,0,0,0,0.2897,0.2883,0.2876,0.2879,0.2874,0.2862,0.2865,0.2856,0.2852,0.2851,0.2837,0.2835,0.2838,0.2833,0.2827,0.2835,0.2824,0.2825,0.2838,0.2842,0.2844,0.2846,0.281,0,0,0,0,0,0.2901,0.29,0.2888,0.2892,0.289,0.2878,0.2876,0.2868,0.2862,0.2859,0.2851,0.2845,0.2843,0.2842,0.2839,0.2845,0.2843,0.2849,0.2852,0.2854,0.2855,0.286,0.2863,0.2831,0.2831,0.2831,0,0,0.291,0.2903,0.2903,0.2896,0.289,0.289,0.2876,0.2876,0.2876,0.2859,0.286,0.2855,0.2847,0.2852,0.2853,0.2847,0.2864,0.2856,0.2858,0.2858,0.2861,0.2864,0.2867,0.2832,0.2831,0.2831,0,0,0.2927,0.2921,0.2924,0.2919,0.2912,0.2904,0.2905,0.2895,0.2891,0.2892,0.288,0.288,0.2876,0.2872,0.2869,0.2887,0.2877,0.2886,0.29,0.2904,0.2906,0.2909,0.2916,0.2918,0.2887,0.2887,0.2887,0,0.2939,0.2938,0.2927,0.2928,0.2926,0.2911,0.2915,0.2911,0.2903,0.2902,0.2896,0.2892,0.2886,0.289,0.2894,0.2892,0.2893,0.2887,0.2907,0.2909,0.2911,0.2918,0.292,0.2888,0.2888,0.2888,0.2888,0,0.2954,0.2954,0.2958,0.2951,0.2949,0.2951,0.2941,0.294,0.2933,0.2926,0.2929,0.2921,0.2918,0.2918,0.291,0.2921,0.2918,0.2909,0.2898,0.2915,0.2921,0.2924,0.289,0.289,0.2889,0.2889,0,0,0.2981,0.2969,0.2971,0.2968,0.296,0.296,0.2962,0.2959,0.2959,0.2955,0.2957,0.2955,0.2948,0.2945,0.2937,0.2941,0.2956,0.2932,0.2931,0.2937,0.2969,0.2976,0.2979,0.295,0.2951,0.2951,0.297,0,0.2997,0.3,0.2991,0.2996,0.2997,0.2984,0.2987,0.2982,0.2976,0.2976,0.297,0.2969,0.2959,0.2957,0.296,0.2954,0.2963,0.2952,0.2953,0.2953,0.2956,0.2982,0.2989,0.3008,0.2973,0.2973,0.2973,0,0.3015,0.3012,0.3019,0.3011,0.3011,0.3013,0.3011,0.301,0.3005,0.3001,0.2999,0.299,0.2993,0.2982,0.2986,0.2979,0.2979,0.2976,0.2976,0.2976,0.2964,0.2984,0.3013,0.3016,0.2977,0.2976,0.2976,0,0.3035,0.3033,0.3037,0.3035,0.3026,0.3029,0.3025,0.302,0.3019,0.3017,0.3016,0.3014,0.3013,0.3012,0.3003,0.2996,0.3009,0.2997,0.3006,0.3007,0.3009,0.3009,0.304,0.3009,0.3008,0.3008,0.3008,0,0.3054,0.3058,0.3046,0.3049,0.3054,0.3043,0.3049,0.3044,0.304,0.3042,0.3031,0.3033,0.3021,0.3022,0.3015,0.302,0.3019,0.3017,0.3015,0.3018,0.3018,0.3018,0.3017,0.3009,0.3009,0.3009,0.3009,0,0.3077,0.3069,0.3073,0.3065,0.3063,0.3067,0.3061,0.3063,0.3057,0.306,0.306,0.3051,0.3052,0.3043,0.3042,0.3037,0.3046,0.3041,0.3048,0.3046,0.3056,0.3056,0.3088,0.3092,0.3058,0.3058,0.3058,0,0.309,0.3093,0.3086,0.3087,0.3084,0.3085,0.3085,0.3075,0.3075,0.3071,0.3074,0.3074,0.3074,0.3076,0.3069,0.3069,0.3065,0.3076,0.3064,0.3068,0.3066,0.3066,0.3067,0.3078,0.3079,0.3079,0.3079,0,0.3114,0.311,0.311,0.3109,0.3109,0.3107,0.3105,0.3107,0.3096,0.3097,0.3098,0.3098,0.3097,0.3098,0.3096,0.3093,0.3085,0.3083,0.3085,0.3089,0.3093,0.3092,0.3055,0.3082,0.3082,0.3082,0.3082,0.3082,0.3133,0.3136,0.3132,0.3132,0.313,0.3129,0.3131,0.3126,0.3127,0.3126,0.312,0.3123,0.3119,0.3117,0.3115,0.3117,0.3111,0.3114,0.3115,0.3116,0.3119,0.3092,0.3116,0.3116,0.3116,0.3116,0.3116,0,0.3157,0.3154,0.3155,0.3153,0.3154,0.3146,0.3144,0.3145,0.3148,0.3145,0.3146,0.3148,0.3149,0.3143,0.3143,0.3146,0.3142,0.3146,0.3146,0.3146,0.3123,0.3121,0.315,0.315,0.3149,0.3149,0.3149,0.3149,0.3169,0.3175,0.3171,0.3175,0.3173,0.3175,0.3175,0.3174,0.3172,0.3175,0.3176,0.3172,0.3169,0.3169,0.317,0.3169,0.317,0.3175,0.3172,0.3151,0.3148,0.3144,0.3143,0.3175,0.3175,0.3196,0.3196,0.3196]}]]